Location: Newark
(42.7133°N, 87.7910°W)
Time: 21:04:19
(UTC+00:00)

Tiros 1 - Pass Details

Date: 21 September 2019
Orbit: 630 x 664 km, 48.4° (Epoch: 17 October)

Event Time Altitude Azimuth Distance (km) Brightness Sun altitude
Rises 01:48:46 0° 286° (WNW) 2,928 12.0 -21.6°
Reaches altitude 10° 01:51:51 10° 265° (W) 2,010 10.5 -22.2°
Maximum altitude 01:54:40 16° 227° (SW) 1,639 9.5 -22.6°
Enters shadow 01:56:50 12° 196° (SSW) 1,860 9.4 -23.0°
Drops below altitude 10° 01:57:28 10° 189° (S) 1,997 - -23.1°
Sets 02:00:32 0° 168° (SSE) 2,899 - -23.6°
